• In Slovakia
  • List of Countries
  • For 7 days
  • Water Temperature
  • Satellite Maps
  • Weather Map
  • Weather Widgets
  • user-avatar
    Login

    Hourly Weather Wodzilki

    Today, 18 July, Wednesday

    Time Temperature Precipitation Wind Pressure Humidity
    00:00 +20°C° 0 mm 3 mps 738 mmHg 94%
    01:00 +19°C° 0 mm 3 mps 738 mmHg 95%
    02:00 +19°C° 0 mm 3 mps 738 mmHg 96%
    03:00 +19°C° 0 mm 3 mps 738 mmHg 96%
    04:00 +19°C° 0 mm 3 mps 738 mmHg 97%
    05:00 +18°C° 0 mm 3 mps 738 mmHg 97%
    06:00 +20°C° 0 mm 3 mps 738 mmHg 94%
    07:00 +21°C° 0 mm 3 mps 738 mmHg 91%
    08:00 +22°C° 0 mm 4 mps 738 mmHg 88%
    09:00 +25°C° 0.2 mm 4 mps 738 mmHg 83%
    10:00 +26°C° 0.2 mm 4 mps 739 mmHg 77%
    11:00 +27°C° 0.2 mm 5 mps 739 mmHg 72%
    12:00 +28°C° 0.2 mm 5 mps 738 mmHg 70%
    13:00 +28°C° 0.2 mm 5 mps 738 mmHg 69%
    14:00 +28°C° 0.2 mm 4 mps 738 mmHg 67%
    15:00 +28°C° 0.3 mm 4 mps 738 mmHg 68%
    16:00 +28°C° 0.3 mm 4 mps 738 mmHg 69%
    17:00 +28°C° 0.3 mm 4 mps 738 mmHg 70%
    18:00 +27°C° 0.1 mm 4 mps 739 mmHg 74%
    19:00 +26°C° 0.1 mm 3 mps 739 mmHg 78%
    20:00 +24°C° 0.1 mm 3 mps 739 mmHg 81%
    21:00 +22°C° 0 mm 3 mps 739 mmHg 84%
    22:00 +21°C° 0 mm 3 mps 739 mmHg 87%
    23:00 +19°C° 0 mm 2 mps 739 mmHg 90%

    Tomorrow, 19 July, Thursday

    Time Temperature Precipitation Wind Pressure Humidity
    00:00 +19°C° 0 mm 2 mps 739 mmHg 91%
    01:00 +18°C° 0 mm 2 mps 739 mmHg 92%
    02:00 +18°C° 0 mm 2 mps 739 mmHg 93%
    03:00 +18°C° 0 mm 2 mps 740 mmHg 93%
    04:00 +17°C° 0 mm 2 mps 740 mmHg 93%
    05:00 +17°C° 0 mm 2 mps 740 mmHg 93%
    06:00 +19°C° 0 mm 3 mps 740 mmHg 88%
    07:00 +20°C° 0 mm 3 mps 740 mmHg 83%
    08:00 +22°C° 0 mm 3 mps 740 mmHg 78%
    09:00 +24°C° 0.1 mm 3 mps 740 mmHg 72%
    10:00 +25°C° 0.1 mm 4 mps 740 mmHg 67%
    11:00 +27°C° 0.1 mm 5 mps 740 mmHg 62%
    12:00 +27°C° 0.3 mm 5 mps 740 mmHg 63%
    13:00 +27°C° 0.3 mm 5 mps 740 mmHg 64%
    14:00 +27°C° 0.3 mm 5 mps 740 mmHg 65%
    15:00 +27°C° 0.4 mm 5 mps 740 mmHg 68%
    16:00 +27°C° 0.4 mm 5 mps 740 mmHg 71%
    17:00 +26°C° 0.4 mm 5 mps 740 mmHg 74%
    18:00 +25°C° 0.5 mm 4 mps 740 mmHg 78%
    19:00 +23°C° 0.5 mm 4 mps 740 mmHg 83%
    20:00 +21°C° 0.5 mm 3 mps 740 mmHg 88%
    21:00 +20°C° 0 mm 3 mps 740 mmHg 90%
    22:00 +20°C° 0 mm 3 mps 741 mmHg 92%
    23:00 +19°C° 0 mm 3 mps 741 mmHg 94%

    Day after tomorrow, 20 July, Friday

    Time Temperature Precipitation Wind Pressure Humidity
    00:00 +18°C° 0 mm 3 mps 741 mmHg 94%
    01:00 +18°C° 0 mm 3 mps 740 mmHg 95%
    02:00 +17°C° 0 mm 3 mps 740 mmHg 96%
    03:00 +17°C° 0 mm 3 mps 740 mmHg 96%
    04:00 +17°C° 0 mm 3 mps 740 mmHg 96%
    05:00 +17°C° 0 mm 3 mps 740 mmHg 97%
    06:00 +18°C° 0 mm 3 mps 740 mmHg 94%
    07:00 +19°C° 0 mm 4 mps 740 mmHg 90%
    08:00 +21°C° 0 mm 4 mps 740 mmHg 87%
    09:00 +22°C° 0.1 mm 4 mps 740 mmHg 82%
    10:00 +23°C° 0.1 mm 4 mps 740 mmHg 77%
    11:00 +26°C° 0.1 mm 4 mps 740 mmHg 72%
    12:00 +26°C° 0.5 mm 4 mps 740 mmHg 73%
    13:00 +26°C° 0.5 mm 5 mps 740 mmHg 73%
    14:00 +27°C° 0.5 mm 5 mps 739 mmHg 74%
    15:00 +26°C° 0.4 mm 5 mps 739 mmHg 74%
    16:00 +26°C° 0.4 mm 6 mps 739 mmHg 75%
    17:00 +26°C° 0.4 mm 6 mps 739 mmHg 75%
    18:00 +25°C° 0.1 mm 5 mps 739 mmHg 78%
    19:00 +23°C° 0.1 mm 5 mps 739 mmHg 82%
    20:00 +22°C° 0.1 mm 4 mps 739 mmHg 85%
    21:00 +21°C° 0 mm 4 mps 739 mmHg 87%
    22:00 +19°C° 0 mm 4 mps 739 mmHg 89%
    23:00 +18°C° 0 mm 4 mps 739 mmHg 92%

    21 July, Saturday

    Time Temperature Precipitation Wind Pressure Humidity
    00:00 +18°C° 0 mm 4 mps 739 mmHg 93%
    01:00 +17°C° 0 mm 4 mps 739 mmHg 94%
    02:00 +17°C° 0 mm 4 mps 739 mmHg 95%
    03:00 +17°C° 0 mm 4 mps 739 mmHg 96%
    04:00 +17°C° 0 mm 4 mps 739 mmHg 96%
    05:00 +17°C° 0 mm 3 mps 739 mmHg 96%
    06:00 +18°C° 0 mm 4 mps 739 mmHg 93%
    07:00 +19°C° 0 mm 4 mps 739 mmHg 89%
    08:00 +20°C° 0 mm 4 mps 739 mmHg 85%
    09:00 +22°C° 0.1 mm 4 mps 739 mmHg 82%
    10:00 +23°C° 0.1 mm 4 mps 739 mmHg 78%
    11:00 +25°C° 0.1 mm 4 mps 739 mmHg 75%
    12:00 +26°C° 0.8 mm 5 mps 739 mmHg 75%
    13:00 +26°C° 0.8 mm 5 mps 739 mmHg 75%
    14:00 +26°C° 0.8 mm 5 mps 739 mmHg 75%
    15:00 +26°C° 0.6 mm 5 mps 739 mmHg 75%
    16:00 +25°C° 0.6 mm 5 mps 739 mmHg 76%
    17:00 +25°C° 0.6 mm 5 mps 739 mmHg 77%
    18:00 +23°C° 0.1 mm 5 mps 739 mmHg 79%
    19:00 +22°C° 0.1 mm 5 mps 739 mmHg 82%
    20:00 +20°C° 0.1 mm 4 mps 739 mmHg 85%
    21:00 +19°C° 0 mm 4 mps 739 mmHg 87%
    22:00 +18°C° 0 mm 4 mps 739 mmHg 89%
    23:00 +17°C° 0 mm 4 mps 739 mmHg 91%

    22 July, Sunday

    Time Temperature Precipitation Wind Pressure Humidity
    00:00 +17°C° 0 mm 4 mps 739 mmHg 92%
    01:00 +15°C° 0 mm 4 mps 739 mmHg 93%
    02:00 +14°C° 0 mm 4 mps 739 mmHg 94%
    03:00 +14°C° 0 mm 3 mps 739 mmHg 93%
    04:00 +14°C° 0 mm 3 mps 739 mmHg 93%
    05:00 +14°C° 0 mm 3 mps 739 mmHg 93%
    06:00 +16°C° 0 mm 3 mps 739 mmHg 88%
    07:00 +18°C° 0 mm 3 mps 739 mmHg 84%
    08:00 +19°C° 0 mm 3 mps 740 mmHg 79%
    09:00 +21°C° 0 mm 4 mps 740 mmHg 74%
    10:00 +22°C° 0 mm 4 mps 740 mmHg 68%
    11:00 +25°C° 0 mm 5 mps 740 mmHg 63%
    12:00 +25°C° 0 mm 5 mps 740 mmHg 62%
    13:00 +25°C° 0 mm 5 mps 740 mmHg 61%
    14:00 +26°C° 0 mm 6 mps 740 mmHg 60%
    15:00 +24°C° 0 mm 6 mps 740 mmHg 62%
    16:00 +23°C° 0 mm 6 mps 740 mmHg 64%
    17:00 +23°C° 0 mm 6 mps 740 mmHg 66%
    18:00 +21°C° 0 mm 5 mps 740 mmHg 71%
    19:00 +20°C° 0 mm 5 mps 740 mmHg 76%
    20:00 +18°C° 0 mm 4 mps 741 mmHg 81%
    21:00 +17°C° 0 mm 4 mps 741 mmHg 85%
    22:00 +16°C° 0 mm 3 mps 741 mmHg 89%
    23:00 +14°C° 0 mm 3 mps 741 mmHg 93%

    23 July, Monday

    Time Temperature Precipitation Wind Pressure Humidity
    00:00 +13°C° 0 mm 3 mps 741 mmHg 94%
    01:00 +13°C° 0 mm 3 mps 741 mmHg 96%
    02:00 +13°C° 0 mm 3 mps 742 mmHg 97%
    03:00 +13°C° 0 mm 3 mps 742 mmHg 97%
    04:00 +12°C° 0 mm 3 mps 742 mmHg 97%
    05:00 +12°C° 0 mm 3 mps 742 mmHg 97%
    06:00 +14°C° 0 mm 3 mps 742 mmHg 92%
    07:00 +15°C° 0 mm 4 mps 742 mmHg 87%
    08:00 +18°C° 0 mm 4 mps 742 mmHg 81%
    09:00 +19°C° 0.1 mm 4 mps 742 mmHg 77%
    10:00 +20°C° 0.1 mm 5 mps 742 mmHg 74%
    11:00 +21°C° 0.1 mm 5 mps 742 mmHg 70%
    12:00 +21°C° 0.2 mm 5 mps 742 mmHg 69%
    13:00 +22°C° 0.2 mm 5 mps 742 mmHg 67%
    14:00 +22°C° 0.2 mm 5 mps 742 mmHg 65%
    15:00 +22°C° 0.1 mm 5 mps 742 mmHg 66%
    16:00 +22°C° 0.1 mm 5 mps 742 mmHg 67%
    17:00 +22°C° 0.1 mm 5 mps 742 mmHg 68%
    18:00 +21°C° 0 mm 4 mps 742 mmHg 73%
    19:00 +19°C° 0 mm 3 mps 742 mmHg 79%
    20:00 +18°C° 0 mm 3 mps 742 mmHg 84%
    21:00 +17°C° 0 mm 2 mps 743 mmHg 88%
    22:00 +16°C° 0 mm 2 mps 743 mmHg 91%
    23:00 +15°C° 0 mm 2 mps 743 mmHg 95%
    Show more